This is the latest recevied weather packets stored in our database for station/object KD8JAM. If no packets are shown the sender has not sent any weather packets the latest 1 day(s).
| Time | Temp. | Humidity | Pressure | Rain* | Wind** | Luminosity | Snow |
|---|---|---|---|---|---|---|---|
| 1778095261 | 2.78° C | 78% | 1013.8 hPa | 0 mm | - | 373 W/m² | - |
| 1778094048 | 4.44° C | 70% | 1013.7 hPa | 0 mm | - | 647 W/m² | - |
| 1778092532 | 3.33° C | 74% | 1013.4 hPa | 0 mm | - | 720 W/m² | - |
| 1778091018 | 3.89° C | 73% | 1013.3 hPa | 0 mm | - | 512 W/m² | - |
| 1778090411 | 3.89° C | 71% | 1013.3 hPa | 0 mm | - | 684 W/m² | - |
| 1778090108 | 3.89° C | 74% | 1013.5 hPa | 0 mm | - | 754 W/m² | - |
| 1778087072 | 4.44° C | 76% | 1013.5 hPa | 0 mm | - | 790 W/m² | - |
| 1778086158 | 3.89° C | 75% | 1013.7 hPa | 0 mm | - | 311 W/m² | - |
| 1778085855 | 3.33° C | 76% | 1013.6 hPa | 0 mm | - | 374 W/m² | - |
| 1778085554 | 3.33° C | 75% | 1013.4 hPa | 0 mm | - | 614 W/m² | - |
| 1778085248 | 3.89° C | 75% | 1013.5 hPa | 0 mm | - | 471 W/m² | - |
| 1778084338 | 4.44° C | 72% | 1013.4 hPa | 0 mm | - | 675 W/m² | - |
| 1778080789 | 2.22° C | 85% | 1013.4 hPa | 0 mm | - | 329 W/m² | - |
| 1778080184 | 2.78° C | 83% | 1013.3 hPa | 0 mm | - | 368 W/m² | - |
| 1778079577 | 3.33° C | 81% | 1013.5 hPa | 0 mm | - | 556 W/m² | - |
| 1778079273 | 2.78° C | 81% | 1013.2 hPa | 0 mm | - | 795 W/m² | - |
| 1778077156 | 2.22° C | 86% | 1013.2 hPa | 0 mm | - | 225 W/m² | - |
| 1778076552 | 2.22° C | 86% | 1012.8 hPa | 0 mm | - | 294 W/m² | - |
| 1778074125 | 1.67° C | 88% | 1012.5 hPa | 0 mm | - | 168 W/m² | - |
| 1778072610 | 1.11° C | 89% | 1012.4 hPa | 0 mm | - | 122 W/m² | - |
| 1778072308 | 1.11° C | 90% | 1012.4 hPa | 0 mm | - | 109 W/m² | - |
| 1778072006 | 1.11° C | 90% | 1012.5 hPa | 0 mm | - | 107 W/m² | - |
| 1778071401 | 1.11° C | 91% | 1012.3 hPa | 0 mm | - | 110 W/m² | - |
| 1778070797 | 1.11° C | 91% | 1012.2 hPa | 0 mm | - | 108 W/m² | - |
| 1778070494 | 1.11° C | 91% | 1012.2 hPa | 0 mm | - | 108 W/m² | - |
* Rain latest hour (hover to see other rain measurements)
** Current wind speed in m/s (hover to see current wind gust speed)